Location: Cisewo
(53.3833°N, 14.9000°E)
Time: 11:07:50
(UTC+00:00)

Cosmos 1300 - Pass Details

Date: 18 April 2021
Orbit: 510 x 513 km, 82.5° (Epoch: 14 May)

Event Time Altitude Azimuth Distance (km) Brightness Sun altitude
Rises 18:41:54 0° 206° (SSW) 2,617 6.3 -5.6°
Reaches altitude 10° 18:44:06 10° 213° (SSW) 1,735 5.5 -5.9°
Maximum altitude 18:47:45 44° 287° (WNW) 725 4.1 -6.4°
Drops below altitude 10° 18:51:26 10° 0° (N) 1,748 5.8 -6.9°
Sets 18:53:39 0° 7° (N) 2,639 6.6 -7.2°
